Date Time,Air Temp,Sky Temp,Clarity,Light Level,Rain Sensor,Readings
2010-12-12 00:02:08,14.0,0.1,13.9,0.0,2.3,112
2010-12-12 00:07:08,14.0,0.1,13.9,0.0,2.3,112
2010-12-12 00:12:08,13.9,0.1,13.9,0.0,2.4,111
2010-12-12 00:17:08,13.9,0.1,13.8,0.0,2.4,112
2010-12-12 00:22:08,14.0,0.0,14.0,0.0,2.4,112
2010-12-12 00:27:08,14.0,-0.2,14.2,0.0,2.4,112
2010-12-12 00:32:08,13.9,-0.2,14.1,0.0,2.4,111
2010-12-12 00:37:08,14.0,0.1,13.8,0.0,2.4,111
2010-12-12 00:42:08,14.0,0.9,13.2,0.0,2.3,111
2010-12-12 00:47:08,14.1,0.9,13.2,0.0,2.3,111
2010-12-12 00:52:08,14.1,1.2,12.9,0.0,2.3,111
2010-12-12 00:57:08,14.1,0.8,13.3,0.0,2.3,111
2010-12-12 01:02:34,14.1,1.1,13.0,0.0,2.3,111
2010-12-12 01:07:34,14.0,0.6,13.3,0.0,2.3,111
2010-12-12 01:12:34,13.9,0.7,13.2,0.0,2.3,111
2010-12-12 01:17:34,13.8,1.3,12.5,0.0,2.3,111
2010-12-12 01:22:34,13.8,1.4,12.4,0.0,2.3,111
2010-12-12 01:27:34,13.8,0.6,13.2,0.0,2.3,111
2010-12-12 01:32:34,13.9,0.6,13.3,0.0,2.4,111
2010-12-12 01:37:34,13.9,0.2,13.7,0.0,2.4,112
2010-12-12 01:42:34,13.9,0.4,13.6,0.0,2.3,111
2010-12-12 01:47:34,14.0,0.0,14.0,0.0,2.4,112
2010-12-12 01:52:34,13.9,-1.8,15.7,0.0,2.4,112
2010-12-12 01:57:34,16.3,-16.0,32.3,0.0,2.3,111
2010-12-12 02:02:34,17.9,-20.0,38.0,0.0,2.3,112
2010-12-12 02:07:34,18.2,-20.0,38.2,0.0,2.3,112
2010-12-12 02:12:34,18.2,-20.0,38.1,0.0,2.3,112
2010-12-12 02:17:34,17.8,-19.0,36.8,0.0,2.3,111
2010-12-12 02:22:34,18.1,-18.5,36.5,0.0,2.3,112
2010-12-12 02:27:34,18.1,-18.4,36.5,0.0,2.3,112
2010-12-12 02:32:34,18.0,-18.5,36.5,0.0,2.3,112
2010-12-12 02:37:34,17.9,-18.4,36.3,0.0,2.3,112
2010-12-12 02:42:34,17.8,-18.8,36.6,0.0,2.3,111
2010-12-12 02:47:34,17.8,-19.0,36.7,0.0,2.3,112
2010-12-12 02:52:34,17.7,-18.9,36.6,0.0,2.3,112
2010-12-12 02:57:34,17.6,-19.3,36.9,0.0,2.3,111
2010-12-12 03:02:34,17.6,-19.5,37.0,0.0,2.3,112
2010-12-12 03:07:34,17.4,-19.3,36.7,0.0,2.3,111
2010-12-12 03:12:34,17.2,-19.0,36.2,0.0,2.3,111
2010-12-12 03:17:34,17.1,-18.5,35.7,0.0,2.3,112
2010-12-12 03:22:34,17.2,-18.4,35.6,0.0,2.3,112
2010-12-12 03:27:34,17.2,-18.9,36.1,0.0,2.3,111
2010-12-12 03:32:34,16.7,-19.3,36.0,0.0,2.3,112
2010-12-12 03:37:34,17.0,-19.7,36.6,0.0,2.3,111
2010-12-12 03:42:34,17.0,-20.2,37.2,0.0,2.3,112
2010-12-12 03:47:34,17.0,-20.5,37.5,0.0,2.3,112
2010-12-12 03:52:34,16.9,-20.6,37.6,0.0,2.3,112
2010-12-12 03:57:34,16.9,-20.7,37.6,0.0,2.3,111
2010-12-12 04:02:34,16.9,-21.0,37.9,0.0,2.3,112
2010-12-12 04:07:34,16.9,-21.4,38.3,0.0,2.3,112
2010-12-12 04:12:34,16.8,-21.5,38.3,0.0,2.3,111
2010-12-12 04:17:34,16.8,-21.7,38.5,0.0,2.3,111
2010-12-12 04:22:34,16.8,-21.7,38.5,0.0,2.3,112
2010-12-12 04:27:34,16.8,-21.8,38.6,0.0,2.3,112
2010-12-12 04:32:34,16.7,-22.3,39.0,0.0,2.3,112
2010-12-12 04:37:34,16.6,-22.4,39.0,0.0,2.3,111
2010-12-12 04:42:34,16.6,-22.3,38.9,0.0,2.3,112
2010-12-12 04:47:34,16.6,-22.3,38.8,0.0,2.3,112
2010-12-12 04:52:34,16.7,-22.3,39.0,0.0,2.3,111
2010-12-12 04:57:34,16.6,-22.6,39.2,0.0,2.3,112
2010-12-12 05:02:34,16.5,-22.9,39.4,0.0,2.3,111
2010-12-12 05:07:34,16.5,-23.2,39.7,0.0,2.3,111
2010-12-12 05:12:34,16.4,-23.3,39.8,0.0,2.3,112
2010-12-12 05:17:34,16.4,-23.5,39.9,0.0,2.3,111
2010-12-12 05:22:34,16.4,-23.5,39.8,0.0,2.3,111
2010-12-12 05:27:34,16.4,-23.6,39.9,0.0,2.3,112
2010-12-12 05:32:34,16.3,-23.8,40.1,0.0,2.3,111
2010-12-12 05:37:34,16.3,-23.8,40.1,0.0,2.3,111
2010-12-12 05:42:34,16.2,-23.8,40.0,0.0,2.3,111
2010-12-12 05:47:34,16.2,-24.0,40.2,0.0,2.3,111
2010-12-12 05:52:34,16.1,-24.2,40.3,0.0,2.4,111
2010-12-12 05:57:34,16.1,-24.4,40.5,0.0,2.4,111
2010-12-12 06:02:34,16.0,-24.4,40.5,0.0,2.4,112
2010-12-12 06:07:34,15.7,-24.7,40.5,0.0,2.4,111
2010-12-12 06:12:34,16.1,-25.0,41.1,0.0,2.4,112
2010-12-12 06:17:34,16.1,-24.9,41.0,0.0,2.4,112
2010-12-12 06:22:34,16.1,-24.9,41.0,0.0,2.4,111
2010-12-12 06:27:34,16.1,-25.1,41.1,0.0,2.4,112
2010-12-12 06:32:34,16.0,-25.2,41.3,0.0,2.4,112
2010-12-12 06:37:34,16.0,-25.2,41.2,0.0,2.4,111
2010-12-12 06:42:34,16.0,-25.2,41.2,0.1,2.4,112
2010-12-12 06:47:34,16.0,-25.3,41.3,0.1,2.4,112
2010-12-12 06:52:34,16.0,-25.2,41.2,0.3,2.4,112
2010-12-12 06:57:34,15.9,-25.3,41.2,0.5,2.3,112
2010-12-12 07:02:34,15.9,-25.3,41.2,1.0,2.3,111
2010-12-12 07:07:34,15.9,-25.3,41.3,1.8,2.3,112
2010-12-12 07:12:34,15.9,-25.7,41.6,3.2,2.3,111
2010-12-12 07:17:34,15.8,-25.7,41.5,5.7,2.3,112
2010-12-12 07:22:34,15.8,-25.6,41.3,9.6,2.3,112
2010-12-12 07:27:34,15.7,-25.6,41.4,14.6,2.3,111
2010-12-12 07:32:34,15.7,-25.7,41.4,19.9,2.3,112
2010-12-12 07:37:34,15.7,-25.9,41.6,24.2,2.3,111
2010-12-12 07:42:34,15.7,-25.9,41.6,27.2,2.3,111
2010-12-12 07:47:34,15.6,-26.0,41.6,29.0,2.3,112
2010-12-12 07:52:34,15.6,-26.1,41.7,30.2,2.3,111
2010-12-12 07:57:34,15.6,-26.2,41.8,30.8,2.3,112
2010-12-12 08:02:34,15.5,-26.5,42.0,31.2,2.3,111
2010-12-12 08:07:34,15.5,-26.6,42.1,31.5,2.2,111
2010-12-12 08:12:34,15.5,-26.8,42.3,31.7,2.2,112
2010-12-12 08:17:34,15.5,-26.8,42.3,31.9,2.2,111
2010-12-12 08:22:34,15.5,-27.1,42.6,32.0,2.2,111
2010-12-12 08:27:34,15.5,-27.0,42.6,32.0,2.3,112
2010-12-12 08:32:34,15.6,-26.9,42.5,32.1,2.3,111
2010-12-12 08:37:34,15.6,-26.6,42.2,32.1,2.3,112
2010-12-12 08:42:34,15.6,-26.6,42.2,32.1,2.3,111
2010-12-12 08:47:34,15.7,-26.7,42.4,32.2,2.3,112
2010-12-12 08:52:34,15.7,-26.6,42.3,32.2,2.3,111
2010-12-12 08:57:34,15.8,-26.4,42.2,32.2,2.3,112
2010-12-12 09:02:34,15.9,-26.3,42.2,32.2,2.3,111
2010-12-12 09:07:34,15.9,-25.9,41.9,32.2,2.3,112
2010-12-12 09:12:34,15.9,-25.6,41.5,32.3,2.3,111
2010-12-12 09:17:34,16.0,-25.3,41.3,32.3,2.4,112
2010-12-12 09:22:34,16.2,-25.0,41.2,32.3,2.4,111
2010-12-12 09:27:34,16.3,-24.8,41.2,32.3,2.4,112
2010-12-12 09:32:34,16.5,-24.5,41.1,32.3,2.3,112
2010-12-12 09:37:34,16.4,-24.7,41.1,32.3,2.3,111
2010-12-12 09:42:34,16.8,-24.6,41.3,32.3,2.3,111
2010-12-12 09:47:34,16.8,-24.5,41.3,32.3,2.3,112
2010-12-12 09:52:34,16.8,-24.4,41.2,32.3,2.3,111
2010-12-12 09:57:34,16.8,-23.8,40.7,32.4,2.3,111
2010-12-12 10:02:34,16.9,-23.8,40.7,32.4,2.3,111
2010-12-12 10:07:34,16.9,-23.6,40.5,32.4,2.3,111
2010-12-12 10:12:34,17.0,-23.7,40.7,32.4,2.3,112
2010-12-12 10:17:34,17.1,-23.6,40.8,32.4,2.3,111
2010-12-12 10:22:34,16.9,-23.5,40.4,32.4,2.3,112
2010-12-12 10:27:34,17.3,-23.0,40.3,32.4,2.3,112
2010-12-12 10:32:34,17.3,-23.3,40.6,32.4,2.3,111
2010-12-12 10:37:34,17.6,-22.1,39.6,32.5,2.3,112
2010-12-12 10:42:34,18.3,-21.9,40.1,32.5,2.3,111
2010-12-12 10:47:34,18.5,-21.7,40.2,32.5,2.3,112
2010-12-12 10:52:34,19.3,-21.0,40.3,32.5,2.3,111
2010-12-12 10:57:34,19.7,-21.1,40.9,32.6,2.3,112
2010-12-12 11:02:34,20.1,-21.1,41.1,32.6,2.2,111
2010-12-12 11:07:34,20.3,-20.3,40.6,32.6,2.2,112
2010-12-12 11:12:34,20.5,-20.2,40.7,32.6,2.3,112
2010-12-12 11:17:34,20.9,-19.6,40.5,32.6,2.4,112
2010-12-12 11:22:34,21.0,-20.5,41.6,32.6,2.3,111
2010-12-12 11:27:34,20.9,-20.6,41.5,32.6,2.4,112
2010-12-12 11:32:34,20.8,-20.9,41.7,32.6,2.5,111
2010-12-12 11:37:34,20.7,-20.5,41.2,32.6,2.5,112
2010-12-12 11:42:34,20.8,-20.5,41.3,32.6,2.5,112
2010-12-12 11:47:34,20.8,-20.0,40.8,32.6,2.5,111
2010-12-12 11:52:34,21.1,-19.5,40.6,32.6,2.3,112
2010-12-12 11:57:34,21.0,-21.0,42.0,32.5,2.3,111
2010-12-12 12:02:34,20.2,-20.9,41.1,32.5,2.4,112
2010-12-12 12:07:34,20.3,-18.8,39.0,32.6,2.3,112
2010-12-12 12:12:34,21.1,-18.8,39.9,32.6,2.4,112
2010-12-12 12:17:34,21.6,-19.0,40.7,32.6,2.3,111
2010-12-12 12:22:34,21.9,-18.8,40.7,32.6,2.3,112
2010-12-12 12:27:35,22.1,-18.8,40.9,32.6,2.3,111
2010-12-12 12:32:35,22.3,-18.7,40.9,32.6,2.3,112
2010-12-12 12:37:35,22.3,-18.4,40.8,32.6,2.3,112
2010-12-12 12:42:35,22.4,-19.2,41.7,32.6,2.0,111
2010-12-12 12:47:35,22.2,-19.5,41.6,32.6,2.3,111
2010-12-12 12:52:35,22.0,-19.6,41.6,32.6,2.3,112
2010-12-12 12:57:35,21.9,-19.0,40.9,32.6,2.3,112
2010-12-12 13:02:35,22.2,-18.8,41.0,32.6,2.3,111
2010-12-12 13:07:35,22.4,-18.1,40.5,32.6,2.1,112
2010-12-12 13:12:35,22.8,-18.2,41.0,32.6,1.9,111
2010-12-12 13:17:35,22.8,-18.8,41.6,32.6,1.9,112
2010-12-12 13:22:35,22.6,-18.5,41.1,32.6,1.8,112
2010-12-12 13:27:35,22.5,-18.2,40.7,32.6,1.8,111
2010-12-12 13:32:35,22.5,-18.2,40.7,32.6,1.8,111
2010-12-12 13:37:35,22.6,-17.2,39.8,32.6,1.8,112
2010-12-12 13:42:35,22.8,-15.8,38.5,32.6,2.0,112
2010-12-12 13:47:35,22.8,-15.8,38.6,32.6,2.1,111
2010-12-12 13:52:35,22.7,-17.3,39.9,32.6,2.0,112
2010-12-12 13:57:35,22.6,-17.2,39.7,32.6,1.9,111
2010-12-12 14:02:35,22.5,-18.1,40.6,32.6,1.9,112
2010-12-12 14:07:35,22.5,-18.1,40.6,32.6,1.9,111
2010-12-12 14:12:35,22.5,-18.3,40.8,32.6,1.8,112
2010-12-12 14:17:35,22.3,-18.5,40.9,32.6,1.8,111
2010-12-12 14:22:35,22.2,-18.7,40.9,32.6,1.9,112
2010-12-12 14:27:35,22.1,-18.4,40.4,32.6,2.1,112
2010-12-12 14:32:35,22.1,-18.2,40.3,32.6,2.1,111
2010-12-12 14:37:35,22.1,-18.8,40.9,32.6,2.0,112
2010-12-12 14:42:35,21.8,-19.6,41.4,32.6,2.3,111
2010-12-12 14:47:35,21.0,-17.9,38.9,32.6,2.3,112
2010-12-12 14:52:35,21.2,-16.9,38.1,32.6,2.3,112
2010-12-12 14:57:35,21.1,-16.4,37.5,32.6,2.3,111
2010-12-12 15:02:35,20.8,-15.7,36.5,32.5,2.3,112
2010-12-12 15:07:35,20.4,-11.6,32.0,32.5,2.4,111
2010-12-12 15:12:35,20.2,-5.6,25.8,32.5,2.5,112
2010-12-12 15:17:35,20.2,-2.1,22.3,32.4,2.4,112
2010-12-12 15:22:35,20.1,-1.3,21.4,32.2,2.3,111
2010-12-12 15:27:35,19.8,-1.4,21.2,32.0,2.3,111
2010-12-12 15:32:35,19.7,-1.9,21.6,32.0,2.3,112
2010-12-12 15:37:35,19.5,-1.5,21.0,31.8,2.1,112
2010-12-12 15:42:35,19.3,-1.5,20.8,31.4,2.2,111
2010-12-12 15:47:35,18.9,-1.2,20.1,30.9,2.3,112
2010-12-12 15:52:35,16.0,-0.8,16.8,30.3,2.3,112
2010-12-12 15:57:35,14.6,-0.8,15.4,29.5,2.3,111
2010-12-12 16:02:35,14.0,-1.1,15.1,28.5,2.3,112
2010-12-12 16:07:35,13.7,-1.0,14.7,26.8,2.3,111
2010-12-12 16:12:35,13.3,-0.7,14.0,23.9,2.4,112
2010-12-12 16:17:35,13.5,-0.7,14.2,20.0,2.4,112
2010-12-12 16:22:35,13.5,-0.5,14.0,15.7,2.4,112
2010-12-12 16:27:35,13.5,-0.8,14.3,11.7,2.4,112
2010-12-12 16:32:35,13.4,-0.9,14.3,7.4,2.4,112
2010-12-12 16:37:35,13.4,-0.9,14.3,4.8,2.3,111
2010-12-12 16:42:35,13.4,-0.8,14.2,2.8,2.3,112
2010-12-12 16:47:35,13.4,-1.2,14.5,1.6,2.3,112
2010-12-12 16:52:35,13.3,-1.3,14.6,0.9,2.3,112
2010-12-12 16:57:35,13.3,-1.3,14.5,0.5,2.3,111
2010-12-12 17:02:35,13.3,-1.5,14.8,0.4,2.3,111
2010-12-12 17:07:35,13.3,-1.0,14.3,0.2,2.3,112
2010-12-12 17:12:35,13.3,-1.6,14.9,0.2,2.3,112
2010-12-12 17:17:35,13.3,-1.7,15.0,0.1,2.3,111
2010-12-12 17:22:35,13.3,-1.1,14.4,0.1,2.3,112
2010-12-12 17:27:35,13.3,-1.2,14.4,0.1,2.3,111
2010-12-12 17:32:35,13.3,-1.0,14.3,0.1,2.3,112
2010-12-12 17:37:35,13.3,-1.3,14.5,0.1,2.3,111
2010-12-12 17:42:35,13.3,-1.9,15.2,0.1,2.3,112
2010-12-12 17:47:35,13.3,-1.4,14.6,0.1,2.3,111
2010-12-12 17:52:35,13.3,-1.1,14.5,0.1,2.3,112
2010-12-12 17:57:35,13.3,-1.2,14.5,0.1,2.2,111
2010-12-12 18:02:35,13.3,-1.8,15.1,0.1,2.2,112
2010-12-12 18:07:35,13.2,-2.9,16.1,0.1,2.2,112
2010-12-12 18:12:35,13.2,-2.8,16.0,0.1,2.2,111
2010-12-12 18:17:35,13.2,-2.4,15.6,0.1,2.2,112
2010-12-12 18:22:35,13.1,-2.0,15.2,0.1,2.2,111
2010-12-12 18:27:35,13.1,-1.8,14.9,0.1,2.2,112
2010-12-12 18:32:35,13.1,-2.5,15.6,0.1,2.2,112
2010-12-12 18:37:35,13.1,-1.9,15.0,0.1,2.2,111
2010-12-12 18:42:35,13.1,-2.1,15.1,0.1,2.2,112
2010-12-12 18:47:35,13.1,-1.8,14.9,0.1,2.1,112
2010-12-12 18:52:35,13.0,-2.7,15.7,0.1,2.0,111
2010-12-12 18:57:35,13.0,-2.1,15.1,0.1,1.9,112
2010-12-12 19:02:35,12.9,-2.9,15.8,0.1,1.8,112
2010-12-12 19:07:35,12.9,-2.4,15.4,0.1,1.8,112
2010-12-12 19:12:35,12.9,-2.5,15.4,0.1,1.8,112
2010-12-12 19:17:35,12.9,-1.5,14.4,0.1,1.8,111
2010-12-12 19:22:35,12.9,-1.4,14.3,0.1,1.8,112
2010-12-12 19:27:35,12.9,-2.4,15.2,0.1,1.8,112
2010-12-12 19:32:35,12.8,-2.3,15.1,0.1,1.8,112
2010-12-12 19:37:35,12.8,-3.1,15.8,0.1,1.7,111
2010-12-12 19:42:35,12.7,-3.1,15.8,0.1,1.7,112
2010-12-12 19:47:35,12.7,-3.7,16.4,0.1,1.7,112
2010-12-12 19:52:35,12.6,-3.5,16.1,0.1,1.7,112
2010-12-12 19:57:35,13.6,-10.9,24.5,0.1,1.9,111
2010-12-12 20:02:35,16.3,-19.9,36.2,0.2,2.4,112
2010-12-12 20:07:35,16.5,-23.3,39.8,0.1,2.3,111
2010-12-12 20:12:35,16.8,-23.4,40.2,0.1,2.3,112
2010-12-12 20:17:35,16.8,-24.0,40.8,0.1,2.3,112
2010-12-12 20:22:35,16.7,-24.2,40.8,0.1,2.3,111
2010-12-12 20:27:35,16.6,-24.1,40.7,0.1,2.3,111
2010-12-12 20:32:35,16.5,-24.2,40.7,0.1,2.3,111
2010-12-12 20:37:35,16.5,-23.9,40.4,0.1,2.3,112
2010-12-12 20:42:35,16.4,-16.1,32.5,0.1,2.3,112
2010-12-12 20:47:35,16.6,-11.0,27.6,0.0,2.3,111
2010-12-12 20:52:35,16.8,-15.1,31.9,0.0,2.3,112
2010-12-12 20:57:35,16.8,-21.9,38.7,0.1,2.3,112
2010-12-12 21:02:35,16.7,-21.6,38.3,0.1,2.3,111
2010-12-12 21:07:35,16.6,-23.2,39.8,0.1,2.4,111
2010-12-12 21:12:35,16.5,-23.1,39.7,0.1,2.4,112
2010-12-12 21:17:35,16.4,-23.2,39.6,0.1,2.4,111
2010-12-12 21:22:35,16.1,-16.7,32.8,0.1,2.4,112
2010-12-12 21:27:35,16.5,-12.8,29.3,0.1,2.4,111
2010-12-12 21:32:35,16.7,-10.2,27.0,0.1,2.3,112
2010-12-12 21:37:35,16.7,-19.4,36.1,0.1,2.3,112
2010-12-12 21:42:35,16.6,-22.8,39.5,0.1,2.4,111
2010-12-12 21:47:35,16.5,-22.9,39.5,0.1,2.4,112
2010-12-12 21:52:35,16.4,-23.3,39.7,0.1,2.4,111
2010-12-12 21:57:35,16.2,-23.4,39.6,0.1,2.3,112
2010-12-12 22:02:35,16.2,-23.5,39.6,0.1,2.3,112
2010-12-12 22:07:35,16.1,-23.7,39.8,0.0,2.3,111
2010-12-12 22:12:35,16.1,-23.5,39.6,0.0,2.3,112
2010-12-12 22:17:35,16.1,-23.5,39.5,0.0,2.3,111
2010-12-12 22:22:35,15.9,-24.0,39.9,0.0,2.3,111
2010-12-12 22:27:35,15.9,-23.5,39.4,0.0,2.2,111
2010-12-12 22:32:35,15.9,-23.5,39.5,0.0,2.2,111
2010-12-12 22:37:35,15.9,-23.7,39.7,0.0,2.2,111
2010-12-12 22:42:35,16.0,-23.7,39.7,0.0,2.3,112
2010-12-12 22:47:35,15.7,-23.9,39.6,0.0,2.3,111
2010-12-12 22:52:35,16.0,-23.8,39.8,0.0,2.3,111
2010-12-12 22:57:35,16.1,-23.6,39.7,0.0,2.3,112
2010-12-12 23:02:35,16.2,-23.6,39.8,0.0,2.3,111
2010-12-12 23:07:35,15.8,-23.8,39.6,0.0,2.3,111
2010-12-12 23:12:35,16.2,-23.7,39.9,0.0,2.4,112
2010-12-12 23:17:35,16.3,-23.6,39.9,0.0,2.4,111
2010-12-12 23:22:35,16.4,-23.4,39.7,0.0,2.4,111
2010-12-12 23:27:35,16.3,-23.7,40.0,0.0,2.4,111
2010-12-12 23:32:35,16.2,-23.6,39.8,0.0,2.3,112
2010-12-12 23:37:35,16.2,-23.5,39.7,0.0,2.3,112
2010-12-12 23:42:35,16.2,-23.8,40.0,0.0,2.3,111
2010-12-12 23:47:35,16.1,-23.6,39.7,0.0,2.3,111
2010-12-12 23:52:35,16.1,-23.6,39.7,0.0,2.3,111
2010-12-12 23:57:35,16.1,-23.6,39.7,0.0,2.3,112
